sat.trackr.live / text

‹ back to catalog

TACSAT 4

NORAD 37818 · 2011-052A

PAYLOAD ACTIVE UNKNOWN

§ Identity

Operator
Country
US
Launch date
2011-09-27
Launch site
KODAK
Launch vehicle
Mass (kg)
RCS (m²)
6.36

External: N2YO · Heavens-Above · Gunter

§ Orbital elements

Epoch: 2026-05-24T08:23:24.785088Z

Period
233.98 min
Inclination
62.8259°
Eccentricity
0.4624654
Mean motion
6.15444229 rev/d
Perigee alt
382.9 km
Apogee alt
12,016.7 km
Semi-major
12,577.9 km
B*
6.9326e-4
RAAN
136.1166°
Arg perigee
283.0324°
Mean anomaly
30.7832°
Rev number
32,332

§ Raw data

TACSAT 41 37818U 11052A   26144.34959242  .00001775  00000+0  69326-3 0  99992 37818  62.8259 136.1166 4624654 283.0324  30.7832  6.15444229323321

JSON: /api/v1/satellites/37818 · /tle

For live sub-satellite position, see the globe view (requires WebGL).

§ Visibility from observer

Set your observer location to see the next 7 days of passes ≥ 10°. The values pass through the URL so the page stays shareable.

No JS? Fill the form by hand. The geolocation button needs JavaScript.